Tracking 35275 objects as of 8-Sep-2026
HD Live streaming from Space Station
objects crossing your sky now

SL-3 DEB


SL-3 DEB is no longer on orbit


NORAD ID: 14631
Int'l Code: 1983-075E
Launch date: July 24, 1983
Source: Commonwealth of Independent States (former USSR) (CIS)
Launch site: TYURATAM MISSILE AND SPACE COMPLEX (TTMTR)
Decay date: 2024-07-26

Note: This is SATELLITE DEBRIS
Your satellite tracking list
Your tracking list is empty




NASA's NSSDC Master Catalog

Two Line Element Set (TLE):
1 14631U 83075E   24208.56464481  .08071890  28260-5  19579-3 0  9992
2 14631  97.7615 248.2899 0010981 248.0615 111.9519 16.45353590239214
Source of the keplerian elements: AFSPC